Weather History for PAFB - December, 2013

Change the Weather History Date:

Sunday, December 1, 2013

  Actual Average Record
Temperature  
Mean Temperature -28 °F -  
Max Temperature -24 °F 1 °F - (-1)
Min Temperature -33 °F -6 °F - (-1)
Degree Days  
Heating Degree Days 94    
Moisture  
Dew Point -32 °F    
Average Humidity 75    
Maximum Humidity 82    
Minimum Humidity 69    
Precipitation  
Precipitation 0.00 in - - ()
Sea Level Pressure  
Sea Level Pressure 30.83 in    
Wind  
Wind Speed 0 mph (NE)    
Max Wind Speed 4 mph    
Max Gust Speed -    
Visibility 10 miles    
Events Snow    
Averages and records for this station are not official NWS values.
T = Trace of Precipitation, MM = Missing Value Source: NWS Daily Summary

Daily Weather History Graph

Daily Weather History Graph

Search for Another Location

Airport or City:

Trip Planner

Search our weather history database for the weather conditions in past years. The results will help you decide how hot, cold, wet, or windy it might be!

Date:

Astronomy

Dec. 01, 2013 Rise Set
Actual Time 10:19 AM AKST 2:59 PM AKST
Civil Twilight 9:04 AM AKST 4:14 PM AKST
Nautical Twilight 7:56 AM AKST 5:22 PM AKST
Astronomical Twilight 6:56 AM AKST 6:22 PM AKST
Moon 8:11 AM AKST 2:50 PM AKST
Length of Visible Light 7h 09m
Length of Day
4h 39m
Waning Crescent, 2% of the Moon is Illuminated
Dec 1
Waning Crescent
Dec 2
New
Dec 9
First Quarter
Dec 17
Full
Dec 25
Last Quarter

Hourly Weather History & Observations

Time (AKST) Temp. Windchill Dew Point Humidity Pressure Visibility Wind Dir Wind Speed Gust Speed Precip Events Conditions
12:56 AM -29.0 °F - -33.0 °F 81% 30.81 in 10.0 mi Calm Calm - N/A   Clear
1:56 AM -33.0 °F - - N/A% 30.83 in 10.0 mi Calm Calm - 0.00 in   Clear
2:56 AM -29.9 °F - - N/A% 30.84 in 10.0 mi Calm Calm - N/A   Clear
3:56 AM -29.9 °F - - N/A% 30.83 in 10.0 mi Calm Calm - N/A   Clear
4:56 AM -29.0 °F - -35.0 °F 73% 30.83 in 10.0 mi Calm Calm - N/A   Clear
5:56 AM -27.0 °F - -33.0 °F 73% 30.82 in 10.0 mi Calm Calm - N/A   Clear
6:56 AM -26.0 °F - -32.1 °F 73% 30.82 in 10.0 mi Calm Calm - N/A   Clear
7:56 AM -26.0 °F - -32.1 °F 73% 30.82 in 10.0 mi Calm Calm - N/A   Clear
8:56 AM -29.0 °F - -34.1 °F 77% 30.81 in 10.0 mi Calm Calm - N/A   Clear
9:56 AM -29.0 °F - -36.0 °F 69% 30.81 in 10.0 mi Calm Calm - 0.00 in Snow Light Snow
10:56 AM -27.9 °F - -32.1 °F 81% 30.82 in 10.0 mi Calm Calm - 0.00 in   Clear
11:56 AM -26.0 °F - -31.0 °F 77% 30.81 in 10.0 mi Calm Calm - N/A   Clear
12:56 PM -25.1 °F - -31.0 °F 74% 30.82 in 10.0 mi Calm Calm - N/A   Clear
1:56 PM -26.0 °F - -31.0 °F 77% 30.83 in 10.0 mi Calm Calm - N/A   Clear
2:56 PM -24.0 °F - -27.9 °F 82% 30.83 in 10.0 mi Calm Calm - N/A   Clear
3:56 PM -27.0 °F - -32.1 °F 77% 30.84 in 7.0 mi Calm Calm - N/A   Clear
4:56 PM -25.1 °F -36.5 °F -32.1 °F 70% 30.83 in 9.0 mi NE 3.5 mph - N/A   Clear
5:56 PM -25.1 °F -36.5 °F -31.0 °F 74% 30.84 in 10.0 mi ENE 3.5 mph - N/A   Clear
6:56 PM -26.0 °F - -32.1 °F 73% 30.83 in 10.0 mi Calm Calm - N/A   Clear
7:56 PM -27.0 °F - -32.1 °F 77% 30.83 in 10.0 mi Calm Calm - N/A   Clear
8:56 PM -26.0 °F - -32.1 °F 73% 30.83 in 10.0 mi Calm Calm - N/A   Clear
9:56 PM -27.0 °F - -33.0 °F 73% 30.84 in 10.0 mi Calm Calm - N/A   Clear
10:56 PM -27.0 °F - -32.1 °F 77% 30.83 in 10.0 mi Calm Calm - N/A   Clear
11:56 PM -27.0 °F - -32.1 °F 77% 30.83 in 10.0 mi Calm Calm - N/A   Clear